TimePST,TemperatureF,Dew PointF,Humidity,Sea Level PressureIn,VisibilityMPH,Wind Direction,Wind SpeedMPH,Gust SpeedMPH,PrecipitationIn,Events,Conditions,WindDirDegrees,DateUTC
12:55 AM,46.0,36.0,68,29.99,10.0,WSW,15.0,26.5,N/A,,Clear,250,2013-03-06 08:55:00
1:55 AM,46.0,35.1,66,29.97,10.0,SW,12.7,27.6,N/A,,Clear,230,2013-03-06 09:55:00
2:55 AM,45.0,35.1,68,29.97,10.0,SW,21.9,29.9,N/A,,Clear,230,2013-03-06 10:55:00
3:55 AM,44.1,35.1,71,29.98,10.0,SW,23.0,31.1,N/A,,Clear,230,2013-03-06 11:55:00
4:55 AM,43.0,34.0,71,30.01,10.0,SW,15.0,-,N/A,,Clear,230,2013-03-06 12:55:00
5:55 AM,42.1,34.0,73,30.03,10.0,SW,11.5,-,N/A,,Clear,230,2013-03-06 13:55:00
6:55 AM,43.0,35.1,74,30.04,10.0,SSW,11.5,-,N/A,,Clear,210,2013-03-06 14:55:00
7:55 AM,46.4,33.8,62,30.03,10.0,SW,18.4,24.2,N/A,,Clear,230,2013-03-06 15:55:00
8:55 AM,51.1,35.1,54,30.04,10.0,SW,18.4,-,N/A,,Clear,220,2013-03-06 16:55:00
9:55 AM,55.0,35.1,47,30.03,10.0,SW,17.3,-,N/A,,Clear,230,2013-03-06 17:55:00
10:55 AM,57.0,35.1,44,30.02,10.0,SW,17.3,-,N/A,,Clear,230,2013-03-06 18:55:00
11:55 AM,59.0,35.1,41,30.00,10.0,SW,20.7,-,N/A,,Clear,220,2013-03-06 19:55:00
12:55 PM,59.0,36.0,42,29.98,10.0,SW,25.3,29.9,N/A,,Mostly Cloudy,230,2013-03-06 20:55:00
1:55 PM,60.1,37.0,42,29.97,10.0,SW,21.9,29.9,N/A,,Partly Cloudy,230,2013-03-06 21:55:00
2:25 PM,59.0,35.6,42,29.97,10.0,WSW,19.6,27.6,N/A,,Overcast,250,2013-03-06 22:25:00
2:55 PM,57.9,37.0,46,29.97,10.0,WSW,17.3,25.3,N/A,,Overcast,250,2013-03-06 22:55:00
3:00 PM,-9999,-9999,N/A,-9999,-9999.0,North,-9999.0,-,N/A,,Unknown,0,2013-03-06 23:00:00
3:01 PM,57.2,35.6,44,29.97,10.0,West,17.3,28.8,N/A,,Overcast,260,2013-03-06 23:01:00
3:30 PM,57.2,35.6,44,29.97,10.0,West,17.3,25.3,N/A,,Scattered Clouds,260,2013-03-06 23:30:00
3:55 PM,55.9,36.0,47,29.97,10.0,West,18.4,26.5,N/A,,Clear,260,2013-03-06 23:55:00
4:55 PM,54.0,37.9,55,29.97,10.0,WSW,15.0,21.9,N/A,,Clear,240,2013-03-07 00:55:00
5:55 PM,50.0,37.9,63,29.99,10.0,SW,17.3,23.0,N/A,,Clear,230,2013-03-07 01:55:00
6:55 PM,48.9,39.0,69,29.98,10.0,SW,17.3,-,N/A,,Clear,220,2013-03-07 02:55:00
7:55 PM,46.9,39.0,74,29.98,10.0,SW,11.5,-,N/A,,Clear,230,2013-03-07 03:55:00
8:55 PM,46.0,37.9,73,29.96,10.0,SW,15.0,20.7,N/A,,Clear,230,2013-03-07 04:55:00
9:55 PM,46.0,37.0,71,29.96,10.0,WSW,13.8,19.6,N/A,,Partly Cloudy,240,2013-03-07 05:55:00
10:55 PM,44.1,37.0,76,29.96,10.0,WSW,8.1,-,N/A,,Clear,250,2013-03-07 06:55:00
11:55 PM,43.0,37.9,82,29.95,10.0,West,5.8,-,N/A,,Scattered Clouds,260,2013-03-07 07:55:00